Voltar ao catálogo

ONEWEB-0685

AtivoComunicaçõesPO
NORAD 54679·PAYLOAD·🇬🇧 United Kingdom

Lançado Dec 8, 2022 de Cape Canaveral Space Force Station

Loading…

Próximas Passagens (próximas 24 horas)

TLE

AtualizadoSource: CelesTrak SupGP

Época: Sep 14, 2026, 12:17 UTC

1 54679C 22166AP  26257.51233050 -.00001614  00000+0 -38335-2 0  2573
2 54679  87.9273 226.1680 0002138  99.9620 274.9784 13.23191363    17

Acompanhe ONEWEB-0685 em tempo real com AllMySat

Download on the App Store